sat.trackr.live / text

‹ back to catalog

CAPELLA-15 (ACADIA-5)

NORAD 60544 · 2024-149CE

PAYLOAD ACTIVE UNKNOWN

§ Identity

Operator
Country
US
Launch date
2024-08-16
Launch site
AFWTR
Launch vehicle
Mass (kg)
RCS (m²)

External: N2YO · Heavens-Above · Gunter

§ Orbital elements

Epoch: 2026-09-22T08:10:20.145216Z

Period
96.49 min
Inclination
97.6694°
Eccentricity
0.0005238
Mean motion
14.92390012 rev/d
Perigee alt
586.8 km
Apogee alt
594.1 km
Semi-major
6,968.6 km
B*
6.4294e-5
RAAN
335.7720°
Arg perigee
102.3673°
Mean anomaly
257.8133°
Rev number
11,434

§ Raw data

CAPELLA-15 (ACADIA-5)1 60544U 24149CE  26265.34051094  .00000603  00000+0  64294-4 0  99932 60544  97.6694 335.7720 0005238 102.3673 257.8133 14.92390012114342

JSON: /api/v1/satellites/60544 · /tle

For live sub-satellite position, see the globe view (requires WebGL).

§ Visibility from observer

Set your observer location to see the next 7 days of passes ≥ 10°. The values pass through the URL so the page stays shareable.

No JS? Fill the form by hand. The geolocation button needs JavaScript.